www.pogodaiklimat.ru

Погода и климат >> Архив погоды >> Индонезия >> Toli-Toli


ПОГОДА в Toli-Toli

  • Прогноз погоды в Toli-Toli
  • Монитор погоды в Toli-Toli
  • Климат города

АРХИВ ПОГОДЫ в Toli-Toli

Время (UTC), дата Ветер
(напр.,м/с)
 
Видим.   Явления Облачность Т
(С)
Тd
(С)
f
(%)
Тe
(С)
Тes
(С)
Комфортность P
(гПа)
Po
(гПа)
Тmin
(С)
Tmax
(С)
R
(мм)
R24
(мм)
S
(см)
12 15.11 В 1 9000 м 9/4 600 м
[Sc diur, vesp As op Ci fib]
+27.1 +25.3 90 +39 +39 очень
душно
1009.3 1009.1 +31.8
15 15.11 В 2 9000 м 6/4 600 м
[Sc diur, vesp As op Ci fib]
+25.9 +23.9 89 +36 +36 очень
душно
1009.6 1009.3
18 15.11 В 1 9000 м 6/3 600 м
[Sc As op Ci fib]
+25.2 +22.8 87 +33 +33 очень
душно
1007.1 1006.8
21 15.11 штиль 0 12 км 6/3 600 м
[Sc As op Ci fib]
+24.8 +22.6 88 +33 +33 очень
душно
1007.4 1007.2
00 16.11 З 2 13 км 6/3 600 м
[Sc As op Ci fib]
+29.6 +22.9 67 +39 +42 очень
душно
1008.9 1008.7 +25.0
03 16.11 СЗ 4 13 км 5/3 600 м
[Cu med, cong As op Ci fib]
+30.6 +24.6 70 +43 +50 опасность
перегрева
1008.5 1008.2
06 16.11 СЗ 3 13 км 10/4 600 м
[Cu med, cong As op Ci fib]
+29.8 +24.9 75 +43 +46 опасность
перегрева
1006.8 1006.5
09 16.11 З 6 7000 м слабый дождь 10/5 540 м
[Sc As op Ci fib]
+26.7 +24.7 89 +38 +38 очень
душно
1007.6 1007.4 0.0
12 16.11 В 2 8000 м слабый дождь 10/5 540 м
[Sc As op Ci fib]
+25.1 +23.7 92 +34 +34 очень
душно
1009.9 1009.7 +32.3 4
15 16.11 В 1 8000 м в посл. час дождь 9/4 600 м
[Sc diur, vesp As op Ci fib]
+24.6 +23.7 95 +33 +33 очень
душно
1009.0 1009.8 0.4
18 16.11 В 1 8000 м {дождь} 8/4 600 м
[Sc As op Ci fib]
+24.1 +22.5 91 +32 +32 очень
душно
1006.9 1006.7 0.4
21 16.11 В 2 8000 м 6/3 600 м
[Sc As op Ci fib]
+23.7 +22.3 92 +31 +31 очень
душно
1006.7 1006.4
00 17.11 ЮВ 2 12 км 5/3 600 м
[Sc As op Ci fib]
+27.8 +23.7 78 +38 +41 очень
душно
1008.5 1008.3 +23.8 4
03 17.11 СЗ 2 13 км 4/3 600 м
[Sc As op Ci fib]
+31.6 +23.5 62 +42 +54 опасность
перегрева
1008.1 1007.8
06 17.11 СЗ 4 13 км 4/3 600 м
[Cu med, cong As op Ci fib]
+32.0 +24.9 66 +45 +52 опасность
перегрева
1005.7 1005.5
09 17.11 З 1 13 км 6/4 600 м
[Sc diur, vesp As op Ci fib]
+30.8 +24.9 71 +44 +45 опасность
перегрева
1005.2 1005.0
12 17.11 В 2 9000 м 4/3 600 м
[Sc diur, vesp As trans Ci fib]
+27.6 +25.8 90 +41 +41 опасность
перегрева
1007.3 1007.1 +32.9
15 17.11 В 1 9000 м 4/3 600 м
[Sc diur, vesp As trans Ci fib]
+25.8 +23.5 87 +35 +35 очень
душно
1008.1 1007.9
18 17.11 В 2 8000 м 6/3 600 м
[Sc As op Ci fib]
+25.0 +23.0 89 +33 +33 очень
душно
1006.4 1006.1
21 17.11 В 1 8000 м 8/4 600 м
[Sc As op Ci fib]
+24.9 +23.1 90 +33 +33 очень
душно
1006.6 1006.3
00 18.11 штиль 0 13 км 5/3 600 м
[Sc As op Ci fib]
+29.4 +24.8 76 +42 +46 опасность
перегрева
1008.4 1008.2 +25.0
03 18.11 СЗ 3 13 км 8/4 600 м
[Sc As op Ci fib]
+30.6 +25.5 74 +45 +51 опасность
перегрева
1008.4 1008.1
06 18.11 СЗ 4 13 км 9/4 600 м
[Cu med, cong As op Ci fib]
+31.0 +25.3 72 +45 +48 опасность
перегрева
1006.1 1005.8
09 18.11 СВ 2 13 км 10/4 600 м
[Sc As op Ci fib]
+28.2 +25.0 83 +41 +41 опасность
перегрева
1006.0 1005.7
15 18.11 штиль 0 50 км слабый дождь ?/? +25.6 +24.5 94 +36 +36 очень
душно
1009.3 1009.0
18 18.11 В 1 8000 м {дождь} 10/5 570 м
[Sc As op Ci fib]
+25.1 +24.0 94 +35 +35 очень
душно
1007.8 1007.5 0.0
21 18.11 В 1 8000 м слабый дождь 10/5 540 м
[Sc As op Ci fib]
+24.7 +23.7 94 +34 +34 очень
душно
1007.6 1007.3 0.0
00 19.11 штиль 0 13 км {дождь} 9/3 600 м
[Sc diur, vesp As op Ci fib]
+28.4 +25.6 85 +42 +45 опасность
перегрева
1009.3 1009.1 +24.6 0.0
03 19.11 З 4 13 км 6/3 600 м
[Sc diur, vesp As trans Ci fib]
+31.8 +24.7 66 +45 +51 опасность
перегрева
1008.7 1008.5
06 19.11 З 4 13 км 8/4 600 м
[Cu med, cong As op Ci fib]
+31.9 +24.9 67 +45 +50 опасность
перегрева
1006.5 1006.2
09 19.11 З 2 12 км 6/4 600 м
[Cu med, cong As op Ci fib]
+30.0 +23.6 69 +41 +42 опасность
перегрева
1005.8 1005.5
12 19.11 В 1 8000 м 10/4 600 м
[Sc As op Ci fib]
+28.2 +25.6 86 +42 +42 опасность
перегрева
1008.6 1008.4 +32.1
15 19.11 В 2 8000 м 10/4 600 м
[Sc As op Ci fib]
+26.4 +24.3 88 +37 +37 очень
душно
1008.6 1008.4
18 19.11 В 1 8000 м 8/4 600 м
[Sc As op Ci fib]
+25.5 +24.0 91 +35 +35 очень
душно
1007.4 1007.1
21 19.11 штиль 0 8000 м 6/3 600 м
[Sc As op Ci fib]
+25.1 +22.7 87 +33 +33 очень
душно
1008.1 1007.9
00 20.11 В 2 14 км 6/3 600 м
[Sc As trans Ci fib]
+29.0 +23.4 72 +39 +42 очень
душно
1009.6 1009.4 +25.0
03 20.11 З 1 12 км 9/3 600 м
[Cu med, cong As trans Ci fib]
+30.0 +24.2 71 +42 +50 опасность
перегрева
1009.0 1008.8
06 20.11 З 3 11 км 9/5 570 м
[Cu med, cong As op Ci fib]
+30.0 +24.5 72 +42 +46 опасность
перегрева
1007.1 1006.8
09 20.11 В 1 7000 м слабый дождь 10/6 480 м
[St As op Ci fib]
+24.9 +24.2 96 +34 +35 очень
душно
1008.3 1008.1 11
12 20.11 В 2 7000 м в посл. час дождь 10/5 500 м
[Sc As op Ci fib]
+24.7 +24.0 96 +34 +34 очень
душно
1009.6 1009.4 +32.3 10
15 20.11 В 2 9000 м 9/4 600 м
[Sc diur, vesp As op Ci fib]
+24.2 +23.5 96 +33 +33 очень
душно
1010.0 1009.8
18 20.11 В 2 8000 м 10/5 600 м
[Sc As op Ci fib]
+23.6 +22.6 94 +31 +31 очень
душно
1007.7 1007.5
21 20.11 штиль 0 10 км 10/5 600 м
[Sc As op Ci fib]
+23.4 +22.7 96 +33 +33 очень
душно
1008.0 1007.8
00 21.11 В 2 12 км {дождь} 10/4 600 м
[Sc As op Ci fib]
+26.0 +23.3 85 +35 +36 очень
душно
1009.7 1009.5 +24.0 0.7
03 21.11 СЗ 2 13 км 10/4 600 м
[Sc As op Ci fib]
+30.6 +24.2 69 +43 +48 опасность
перегрева
1008.6 1008.3
06 21.11 штиль 0 8000 м слабый дождь 10/5 540 м
[Cu med, cong As op Ci fib]
+27.2 +26.3 95 +41 +46 опасность
перегрева
1006.7 1006.4 8
09 21.11 штиль 0 8000 м слабый дождь 10/5 540 м
[Cu med, cong As op Ci fib]
+27.2 +26.3 95 +41 +42 опасность
перегрева
1006.7 1006.4 8
12 21.11 В 1 7000 м слабый дождь 10/5 570 м
[Sc diur, vesp As op Ci fib]
+26.0 +24.8 93 +37 +37 очень
душно
1008.3 1008.1 +30.6 0.4
15 21.11 В 2 8000 м {дождь} 10/4 600 м
[Sc As op Ci fib]
+25.4 +24.2 93 +35 +35 очень
душно
1008.9 1008.7 0.2
18 21.11 В 2 9000 м {дождь} 9/4 600 м
[Sc diur, vesp As op Ci fib]
+24.9 +24.2 96 +34 +34 очень
душно
1007.6 1007.4 0.2
21 21.11 В 2 9000 м 8/4 600 м
[Sc diur, vesp As op Ci fib]
+24.3 +24.8 100 +34 +34 очень
душно
1006.3 1006.0
00 22.11 штиль 0 13 км 9/4 600 м
[Sc As op Ci fib]
+26.6 +23.6 84 +36 +39 очень
душно
1083.3 1008.0 +24.2 11
03 22.11 СЗ 2 13 км 9/4 600 м
[Sc As op Ci fib]
+29.0 +23.4 72 +39 +46 очень
душно
1007.3 1007.1
06 22.11 СЗ 3 13 км 9/4 600 м
[Cu med, cong As op Ci fib]
+29.6 +24.7 75 +42 +46 опасность
перегрева
1004.3 1004.1

 

Местоположение метеостанции Toli-Toli (Индонезия): широта 1.02 долгота 120.80 высота над уровнем моря 2 м.

В архиве по умолчанию представлена погода в Toli-Toli за последнюю неделю. Архивные данные за месяц целиком и за предыдущие месяцы, начиная с января 2011 года, Вы можете получить, выбрав интересующий диапазон дат из раскрывающегося списка и нажав кнопку "Ввод!".

Внимание! Время в таблицах - всемирное. Для получения местного времени необходимо прибавить поправку, которая в Toli-Toli равна 8 ч.

Смотрите также архив погоды в соседних городах и на ближайших метеорологических станциях:

Погода в Palu (Индонезия) (223 км)
Погода в Gorontalo (Индонезия) (257 км)
Погода в Poso (Индонезия) (267 км)
Погода в Luwuk (Индонезия) (307 км)
Погода в Tanjung Redep (Индонезия) (392 км)
Погода в Masamba (Индонезия) (400 км)
Погода в Tanjung Selor (Индонезия) (436 км)
Погода в Majene (Индонезия) (440 км)
Погода в Tarakan (Индонезия) (442 км)
Погода в Samarinda (Индонезия) (445 км)

Пояснения к столбцам:

Ветер - указаны скорость ветра в м/с - средняя за 10 мин, порывы в срок и между сроками (в фигурных скобках) и направление, откуда дует ветер: С - северный, СВ - северо-восточный, В - восточный, ЮВ - юго-восточный, Ю - южный, ЮЗ - юго-западный, З - западный, СЗ - северо-западный.
Видимость - горизонтальная дальность видимости в метрах или километрах. При видимости от 1 до 10 км при отсутствии осадков обычно наблюдается дымка, при ухудшении видимости до 1 км и менее - туман. В сухую погоду видимость может ухудшаться дымом, пылью или мглою.
Явления - указаны атмосферные явления, наблюдавшиеся в срок или в последний час перед сроком; фигурными скобками обозначены явления, наблюдавшиеся между сроками (за 1-3 часа до срока); квадратными скобками обозначены град или гололедные отложения с указанием их диаметра в мм.
Облачность - указаны через наклонную черту общая и нижняя облачность в баллах и высота нижней границы облаков в метрах; квадратными скобками обозначены формы облаков: Ci - перистые, Cs - перисто-слоистые, Cc - перисто-кучевые, Ac - высококучевые, As - высокослоистые, Sc - слоисто-кучевые, Ns - слоисто-дождевые, Cu - кучевые, Cb - кучево-дождевые. Подробнее классификацию облаков см. в Атласе облаков (PDF).
T - Температура воздуха - температура, измеренная на высоте 2 м над землей.
Td - Температура точки росы - температура, при понижении до которой содержащийся в воздухе водяной пар достигнет насыщения.
f - Относительная влажность воздуха - влажноcть воздуха, измеренная на высоте 2 м над землей.
Te - Эффективная температура - температура, которую ощущает одетый по сезону человек в тени. Характеристика душности погоды. При расчете учитывается влияние влажности воздуха и скорости ветра на теплоощущения человека.
Tes - Эффективная температура на солнце - температура, которую ощущает человек, с поправкой на солнечный нагрев. Характеристика знойности погоды. Зависит от высоты солнца над горизонтом, облачности и скорости ветра. Ночью, в пасмурную погоду, а также при ветре 12 м/с и более поправка равна нулю.
P - Атмосферное давление - приведенное к уровню моря атмосферное давление.
Po - Атмосферное давление - измеренное на уровне метеостанции атмосферное давление.
Tmin - Минимальная температура - минимум температуры воздуха на высоте 2 м над землей.
Tmax - Максимальная температура - максимум температуры воздуха на высоте 2 м над землей.
R - Количество осадков - Количество выпавших осадков за период времени, мм. При наведении курсора мыши на число - период времени, за который выпало указанное количество осадков.
R24 - Количество осадков - Количество выпавших осадков за 24 часа, мм.
S - Снежный покров - Высота снежного покрова, см. При наведении курсора мыши на число - состояние снежного покрова и степень покрытия местности в баллах.